User: anonymous   Login
Location: S�tio Afonso Gruber
(26.1760°S, 49.5250°W)
Time: 02:14:15
(UTC+00:00)
Language:

Cosmos 1869 Rocket - Orbit

View from above orbital plane
View from above orbital plane
View from above satellite
View from above satellite

Ground track
Ground track

The orbit data is extracted from the following two-line orbital elements,

1 18215U 87062B   21138.19804809  .00000083  00000-0  71407-5 0  9999
2 18215  82.5147  22.2868 0022041  90.0464  27.2101 14.83261439806992
Epoch (UTC): 18 May 2021 04:45:11
Eccentricity: 0.0022041
inclination: 82.5147°
perigee height: 603 km
apogee height: 634 km
right ascension of ascending node: 22.2868°
argument of perigee: 90.0464°
revolutions per day: 14.83261439
mean anomaly at epoch: 27.2101°
orbit number at epoch: 80699

The dashed part of the orbit path shows where the satellite is in the earth's shadow,  

DLR